Tracking 23586 objects as of 6-Aug-2021
HD Live streaming from Space Station
objects crossing your sky now

NANOSAT C BR2

Track NANOSAT C BR2 now!
10-day predictions
NANOSAT C BR2 is classified as:


NORAD ID: 47950
Int'l Code: 2021-022U
Perigee: 540.8 km
Apogee: 571.9 km
Inclination: 97.6 °
Period: 95.6 minutes
Semi major axis: 6927 km
RCS: Unknown
Launch date: March 22, 2021
Source: (TBD)
Launch site: TYURATAM MISSILE AND SPACE COMPLEX (TTMTR)

Uplink (MHz):
Downlink (MHz): 145.865
Beacon (MHz):
Mode: 1k2/2k4/4k8/9k6BPSK
Call sign: NCBR2
Status: Active

aabbcc
Your satellite tracking list
Your tracking list is empty




NASA's NSSDC Master Catalog

Two Line Element Set (TLE):
1 47950U 21022U   21217.83745389  .00000116  00000-0  12198-4 0  9995
2 47950  97.5518 118.9571 0022445 140.6088 307.9025 15.05754916 20481
Source of the keplerian elements: AFSPC